Location: Beddau
(51.5575°N, 3.3561°W)
Time: 03:07:20
(UTC+00:00)

Cosmos 2322 - Pass Details

Date: 03 March 2021
Orbit: 841 x 853 km, 71.0° (Epoch: 13 April)

Event Time Altitude Azimuth Distance (km) Brightness Sun altitude
Rises 19:44:10 0° 187° (S) 3,410 6.8 -17.3°
Reaches altitude 10° 19:46:41 10° 182° (S) 2,479 6.0 -17.7°
Maximum altitude 19:52:05 46° 110° (ESE) 1,138 3.9 -18.5°
Drops below altitude 10° 19:57:31 10° 39° (NE) 2,492 5.9 -19.3°
Sets 20:00:03 0° 34° (NE) 3,431 6.7 -19.7°
